Location: Leipzig
(51.3392°N, 12.3528°E)
Time: 19:05:37
(UTC+01:00)

ISS - Pass Details

Date: 11 February 2018
Orbit: 402 x 407 km, 51.6° (Epoch: 25 February)

Event Time Altitude Azimuth Distance (km) Brightness Sun altitude
Rises 17:47:43 0° 284° (WNW) 2,321 1.2 -5.1°
Reaches altitude 10° 17:49:52 10° 277° (W) 1,460 0.3 -5.5°
Maximum altitude 17:52:57 39° 206° (SSW) 621 -2.5 -5.9°
Drops below altitude 10° 17:56:01 10° 136° (SE) 1,455 -1.3 -6.4°
Sets 17:58:09 0° 129° (SE) 2,312 -0.4 -6.7°
